Vertical_Velocity
-4 -3 -5 -6 -7 -7 -8 -6 -5 -5 -4 -1 -2 -1 -2 -4 -4 -1 0 -1 -6 -6
-2 -4 -4 -4 -6 -4 -8 -6 -5 -6 -4 -2 -1 -2 -5 -2 -1 -4 0 -1 0 -7
-3 -5 -6 -6 -5 -7 -5 -4 -5 -4 -3 -2 -0 -3 -4 -2 -0 -5 4 -2 -2 -3
-4 -5 -4 -6 -9 -4 -3 -6 -6 -5 -3 -2 -2 -2 -2 -3 -1 -4 -2 5 -5 2
-5 -3 -5 -8 -6 -7 -7 -4 -9 -6 -4 -4 -2 -1 -3 -2 -1 -4 -4 -1 3 -2
-4 -2 -5 -4 -2 -6 -5 -7 -4 -6 -6 -4 -2 -2 -1 -4 -2 -1 -4 -3 -1 6
-1 -3 -4 -5 -3 -6 -6 -7 -3 -4 -4 -5 -1 -3 -1 -2 -3 -2 -2 -2 -3 1
-0 -3 -4 -3 -4 -6 -5 -4 -5 -7 -2 -3 -4 -3 -2 -1 -4 -4 -1 2 -2 -2
-3 -3 -5 -3 -3 -6 -2 -4 -4 -3 -7 -2 -1 -3 -1 -2 -5 -3 -3 -4 3 -5
-3 -1 -3 -2 -5 -6 -2 -3 -1 -0 -4 -0 -2 -3 -1 1 -5 -3 -2 -4 -3 -1
-3 -2 -3 -2 -5 -5 -4 -4 -3 2 -1 -3 2 -5 -2 -1 -3 -3 -1 -4 -5 -0
-3 -2 -3 -3 -3 -1 -7 -1 -2 -2 -1 -6 2 -4 -1 -2 -3 -2 -2 -2 -1 -6
-2 -4 -4 -5 -1 -2 -4 -5 -4 3 -2 -0 -6 -2 -1 -2 -4 -4 -6 -1 -1 -1
-1 -5 -4 -4 -0 -2 -3 -6 -3 -5 3 -0 -4 -1 -2 -0 -4 -5 -7 -7 -3 1
Height
3035 3031 3027 3023 3019 3015 3012 3009 3006 3003 3001 2999 2997 2995 2993 2993 2992 2991 2991 2992 2994 2993
3029 3025 3022 3017 3012 3008 3004 3000 2998 2994 2991 2989 2986 2984 2982 2981 2980 2978 2978 2979 2980 2979
3024 3020 3016 3011 3007 3002 2997 2993 2989 2986 2982 2979 2976 2973 2971 2970 2968 2967 2967 2965 2966 2968
3017 3013 3009 3005 3000 2996 2991 2986 2982 2977 2973 2968 2966 2963 2961 2959 2957 2956 2955 2955 2952 2955
3011 3008 3004 2999 2995 2990 2985 2980 2974 2970 2965 2960 2956 2953 2951 2948 2946 2944 2943 2943 2942 2942
3005 3002 2998 2994 2990 2985 2980 2973 2969 2963 2957 2952 2948 2945 2942 2938 2936 2933 2931 2931 2930 2930
2998 2995 2992 2988 2984 2979 2974 2968 2962 2957 2951 2945 2940 2936 2933 2929 2926 2923 2921 2919 2918 2918
2991 2988 2985 2982 2977 2973 2968 2962 2956 2950 2945 2939 2933 2928 2924 2921 2916 2913 2911 2910 2908 2906
2983 2980 2977 2974 2970 2965 2960 2955 2949 2943 2937 2932 2927 2921 2916 2912 2907 2904 2901 2898 2898 2895
2973 2971 2967 2964 2961 2956 2951 2946 2941 2935 2929 2924 2919 2913 2908 2904 2899 2895 2892 2889 2887 2885
2963 2960 2957 2953 2950 2946 2941 2936 2930 2926 2921 2915 2911 2904 2899 2894 2889 2885 2883 2880 2877 2875
2951 2948 2945 2942 2938 2934 2930 2925 2920 2915 2910 2905 2901 2895 2890 2884 2879 2875 2873 2871 2868 2864
2938 2935 2932 2929 2925 2921 2917 2912 2908 2903 2900 2895 2890 2886 2881 2875 2869 2864 2861 2860 2858 2855
2925 2922 2918 2915 2911 2907 2904 2900 2896 2891 2889 2886 2881 2877 2872 2866 2860 2854 2850 2847 2845 2843